sat.trackr.live / text

‹ back to catalog

STARLINK-30507

NORAD 57982 · 2023-151U

PAYLOAD ACTIVE UNKNOWN

§ Identity

Operator
Country
US
Launch date
2023-09-30
Launch site
AFETR
Launch vehicle
Mass (kg)
RCS (m²)

Purposes: comms

External: N2YO · Heavens-Above · Gunter

§ Orbital elements

Epoch: 2026-05-24T17:26:05.946144Z

Period
94.27 min
Inclination
43.0026°
Eccentricity
0.0001889
Mean motion
15.27574643 rev/d
Perigee alt
481.8 km
Apogee alt
484.4 km
Semi-major
6,861.2 km
B*
1.1817e-5
RAAN
284.5498°
Arg perigee
264.3177°
Mean anomaly
95.7459°
Rev number
14,717

§ Raw data

STARLINK-305071 57982U 23151U   26144.72645771  .00000063  00000+0  11817-4 0  99992 57982  43.0026 284.5498 0001889 264.3177  95.7459 15.27574643147177

JSON: /api/v1/satellites/57982 · /tle

For live sub-satellite position, see the globe view (requires WebGL).

§ Visibility from observer

Set your observer location to see the next 7 days of passes ≥ 10°. The values pass through the URL so the page stays shareable.

No JS? Fill the form by hand. The geolocation button needs JavaScript.